COSMOS 2432 (719)

Last updated on Sat Sep 05 2026 00:03:26 GMT+0000 (Coordinated Universal Time)

1 32276U 07052B 26247.29857873 -.00000035 00000+0 00000+0 0 9991 2 32276 65.5433 313.3990 0008465 308.5272 55.2244 2.13103274146776
UTC large
Height (km)
Speed (km/s)
/
Latitude / Longitude
Inclination (degrees)
Orbital Period (minutes)
Azimuth
Elevation
Range (km)
Doppler Factor

Next 0 passes for location: London (51.5072 / 0.1276)

No passes found over London.
COSMOS 2432 (719)